User: anonymous   Login
Location: Caltech
(34.1382°N, 118.1253°W)
Time: 20:13:55
(UTC-07:00)
Language:

OAO 1 Rocket - Orbit

View from above orbital plane
View from above orbital plane
View from above satellite
View from above satellite

Ground track
Ground track

The orbit data is extracted from the following two-line orbital elements,

1 02144U 66031B   14303.97623254  .00000486  00000-0  15148-3 0  7578
2 02144 035.0417 117.6662 0007673 084.0228 276.1337 14.42209354549381
Epoch (UTC): 30 October 2014 23:25:46
Eccentricity: 0.0007673
inclination: 35.0417°
perigee height: 746 km
apogee height: 756 km
right ascension of ascending node: 117.6662°
argument of perigee: 84.0228°
revolutions per day: 14.42209354
mean anomaly at epoch: 276.1337°
orbit number at epoch: 54938

The dashed part of the orbit path shows where the satellite is in the earth's shadow,  

DLR